Theta_e
321 324 325 325 326 328 330 327 326 326 325 323 320 317 316 307 302 300 297 296 295 295 294 294 294 294 294 293 293 293 292 291 291 292 291 290 289 289 290 289 288 287 287
317 317 315 314 316 323 329 330 326 323 324 321 319 317 309 302 300 297 295 295 295 294 294 294 294 294 293 293 293 293 292 291 291 291 291 290 289 289 289 288 287 287 287
311 311 311 310 311 323 328 328 326 323 322 318 317 313 302 300 297 295 295 294 294 294 294 293 293 293 293 293 293 292 292 291 291 291 290 289 288 288 288 289 287 286 286
311 311 310 309 312 321 326 323 323 321 318 316 316 303 300 297 295 295 294 294 293 293 293 293 293 293 293 292 292 292 291 291 291 290 289 288 287 288 288 288 287 285 286
312 312 313 318 319 322 322 322 319 319 316 316 306 300 298 295 295 294 294 293 293 293 293 293 293 292 292 292 292 291 291 290 290 290 288 287 287 288 288 287 287 286 285
312 312 314 319 319 320 322 320 319 318 315 305 300 298 296 294 294 293 293 293 292 292 292 292 292 292 292 292 291 291 290 290 289 288 287 285 286 286 287 287 287 286 285
313 316 317 318 320 321 320 319 319 314 306 300 298 296 294 294 293 293 293 292 292 292 292 292 292 291 291 291 290 290 290 289 288 287 285 285 286 287 287 287 287 286 285
313 315 316 317 317 319 318 318 314 306 300 299 296 294 293 293 293 292 292 292 291 291 291 291 291 291 291 290 290 290 289 289 288 287 285 285 286 286 287 287 287 287 286
313 313 315 316 316 317 316 312 304 300 298 297 294 293 293 293 292 292 291 291 291 291 291 291 291 291 290 290 290 289 289 288 288 286 285 284 286 286 287 287 286 286 286
313 313 314 314 314 314 312 304 300 298 297 295 293 292 292 292 292 291 291 291 291 291 291 290 290 290 290 290 290 289 288 288 287 286 285 285 286 286 287 287 286 285 286
311 313 314 314 314 310 305 300 298 297 295 293 292 292 291 291 291 291 290 290 290 290 290 290 290 290 290 289 289 288 288 287 287 285 285 285 286 286 287 287 286 285 285
309 310 311 310 308 303 299 297 296 295 293 292 291 291 291 290 290 290 292 294 295 289 289 289 289 289 289 288 288 287 287 287 286 285 285 286 286 286 286 286 286 286 285
307 307 307 305 302 299 297 296 295 293 292 291 291 290 290 289 292 295 296 296 289 289 289 288 288 288 288 288 287 286 286 286 286 285 285 285 286 286 285 286 286 286 285
306 306 305 302 299 296 295 294 294 293 291 290 289 289 290 295 295 296 295 291 288 288 288 288 288 288 287 287 286 286 285 285 285 285 285 285 285 285 285 285 285 285 286
305 304 304 302 299 296 294 294 292 290 290 289 289 291 296 296 296 296 292 288 287 287 287 287 287 287 286 286 285 285 285 285 285 285 285 285 285 285 285 285 285 285 285
303 303 302 300 297 294 293 292 289 288 288 288 291 296 297 298 298 292 287 287 287 287 287 286 286 286 285 285 285 285 285 284 284 284 284 284 284 285 285 284 284 285 285
301 301 300 299 296 294 292 291 290 288 287 291 296 297 296 297 293 287 287 287 287 286 286 285 285 285 285 284 284 284 284 284 283 283 283 284 284 284 284 284 284 284 284
299 298 298 298 295 293 292 290 289 288 290 297 296 295 296 294 287 287 287 286 286 285 285 284 284 284 284 283 283 283 283 283 282 282 282 282 283 283 284 284 284 283 283
296 296 296 295 294 292 290 289 287 291 297 295 294 295 295 288 286 287 286 285 285 284 284 284 283 283 283 283 282 282 282 282 281 281 281 281 281 282 282 283 283 283 282
295 294 293 293 291 290 288 287 292 295 294 294 296 294 288 286 286 285 285 284 284 283 283 282 282 282 282 281 281 281 281 281 280 280 280 280 280 280 281 282 282 282 282
294 292 291 290 289 288 287 293 293 295 295 295 294 287 286 286 284 284 283 283 282 282 282 282 281 281 280 280 280 280 280 279 279 279 279 279 279 280 280 280 280 280 280
291 290 290 289 288 286 292 294 295 294 294 292 286 284 284 284 284 283 282 282 281 281 281 280 280 279 279 279 279 278 278 278 278 278 278 278 278 278 278 279 279 279 279
288 287 287 286 286 290 292 291 290 291 288 284 283 283 283 285 286 282 280 280 280 279 279 279 279 278 277 277 277 277 277 277 276 276 276 277 277 277 276 277 277 277 277
287 286 285 285 288 290 289 288 285 282 282 282 281 281 285 284 281 280 279 278 278 277 277 277 277 276 276 276 276 276 276 275 275 275 275 275 276 275 275 275 275 275 275
285 285 287 285 285 286 286 283 281 281 281 280 280 282 282 281 279 278 277 277 276 275 275 275 276 275 275 275 275 275 275 275 274 274 274 274 274 274 274 274 274 274 274
284 283 282 282 283 283 283 283 282 281 280 280 279 279 279 278 277 277 276 275 275 274 275 275 274 274 274 274 274 274 274 274 274 273 273 273 273 273 273 273 273 273 273
Wind_Speed
38 37 37 37 36 36 36 34 32 27 27 24 22 22 20 19 17 14 11 8 5 5 5 5 6 8 10 14 17 20 24 27 30 36 37 36 35 35 33 31 31 30 27
35 36 37 36 36 32 34 34 33 30 28 24 24 21 22 21 17 13 11 8 7 6 4 4 5 7 11 14 17 20 23 26 30 35 36 36 33 32 28 29 28 25 25
35 36 36 36 34 32 32 34 33 28 28 26 24 24 24 20 17 14 12 9 8 6 4 4 5 8 12 15 18 21 23 26 28 32 35 32 29 28 25 24 25 22 21
33 32 32 33 31 31 34 34 31 32 26 28 27 27 24 20 18 15 12 10 7 6 5 5 7 10 13 16 19 22 24 26 28 29 30 28 27 25 23 26 23 20 16
29 28 28 28 29 35 33 32 29 27 26 30 30 28 24 21 19 15 12 9 7 6 6 7 9 12 14 16 19 22 24 26 28 28 26 24 23 22 21 23 21 16 13
25 25 24 27 29 35 38 34 30 31 32 32 29 26 23 21 17 14 11 9 8 8 8 9 11 12 15 17 20 23 25 25 25 24 23 21 21 19 18 19 18 16 12
26 26 27 30 34 37 36 33 33 34 35 32 29 26 24 20 16 14 11 9 9 9 9 10 12 14 16 18 21 22 23 23 23 21 22 18 20 16 16 16 14 12 10
28 30 31 33 35 36 36 35 36 37 35 32 29 26 23 20 16 14 12 11 11 10 10 11 13 15 16 19 21 22 22 21 19 17 18 17 19 16 14 13 15 11 10
31 32 35 36 37 38 38 38 38 37 35 31 28 25 22 19 16 14 13 12 11 10 11 13 14 15 17 20 22 23 23 22 19 16 14 16 19 15 13 11 12 12 11
32 32 35 37 38 38 39 40 39 35 32 30 28 24 22 19 16 15 14 12 11 10 13 15 16 17 19 21 22 23 23 22 20 16 15 16 17 15 14 13 11 10 11
31 32 34 36 38 38 39 39 37 35 32 30 27 24 21 18 16 14 13 13 11 15 16 16 17 19 20 21 22 22 23 23 20 17 17 17 16 15 15 14 12 11 11
31 32 34 36 38 40 40 39 37 34 32 30 27 24 21 17 15 13 11 11 17 19 18 18 18 18 20 21 21 22 22 21 19 19 18 17 16 15 16 15 14 14 13
33 35 36 38 40 41 41 39 38 35 33 30 27 23 19 15 13 10 11 15 22 21 19 19 18 19 19 19 20 21 20 20 20 20 19 18 16 14 15 16 16 16 16
33 36 38 41 43 42 41 39 37 36 34 30 26 21 17 13 10 11 13 22 22 21 20 19 19 20 19 19 19 18 19 20 20 20 20 18 17 17 18 18 17 17 19
29 35 39 42 43 43 41 40 37 33 29 26 22 18 13 12 11 15 23 23 22 22 21 20 19 19 19 20 20 18 17 18 19 20 21 21 19 19 20 20 18 18 20
25 32 39 43 45 45 43 40 36 32 28 24 20 15 12 13 20 22 25 24 23 22 21 20 19 19 20 21 21 21 19 17 18 20 20 20 21 20 20 20 21 21 21
23 28 35 42 45 44 42 40 38 32 26 23 20 13 14 27 24 26 25 25 23 22 20 19 20 20 21 21 22 22 22 21 20 19 19 19 21 21 23 22 21 22 23
20 24 30 37 43 43 41 36 31 30 29 22 15 22 28 23 26 27 27 24 22 21 20 20 21 21 21 22 22 22 22 21 21 20 19 20 21 22 23 24 23 23 24
17 20 24 31 38 38 34 32 30 27 22 24 31 35 26 28 29 29 27 24 22 21 21 22 22 21 21 21 22 22 23 22 21 21 20 20 21 22 24 24 25 25 24
13 17 20 26 33 33 32 32 30 28 32 34 34 24 28 28 28 27 27 24 23 23 23 21 21 21 22 21 21 22 21 20 21 21 21 21 21 22 23 25 26 26 25
10 13 16 21 28 30 31 29 30 31 33 36 28 27 28 29 27 27 26 25 24 24 23 21 20 20 21 21 21 20 20 19 20 22 21 21 21 21 21 24 25 24 23
9 12 17 22 27 30 30 31 35 32 30 25 27 28 28 27 25 27 26 26 26 25 24 21 20 20 21 20 20 19 18 18 19 20 20 21 22 21 20 21 22 21 20
11 15 19 24 27 28 32 27 26 26 23 27 28 27 25 26 29 29 27 27 26 24 23 22 22 20 21 20 21 21 19 18 19 20 20 20 20 20 19 18 18 18 19
15 17 20 23 25 29 26 24 21 23 26 26 26 27 27 27 28 29 28 26 24 23 23 23 23 22 20 20 20 21 22 21 20 19 21 20 19 18 18 18 18 18 18
17 20 23 24 27 29 27 24 25 26 26 26 27 29 29 27 28 28 26 26 24 23 22 23 24 24 23 21 20 21 21 22 21 20 20 20 19 18 18 18 18 19 20
17 19 22 25 26 27 27 28 28 28 28 28 28 28 27 27 27 26 26 26 25 24 23 23 24 25 24 23 23 22 21 21 22 22 21 21 21 20 19 18 18 19 19
Wind_Direction
228 231 235 237 236 233 229 233 234 232 228 223 230 230 224 209 208 210 212 223 243 263 288 320 344 354 353 347 345 343 340 338 337 339 338 343 348 348 354 2 2 5 9
229 232 236 237 237 230 227 228 224 230 224 222 228 223 206 204 208 211 216 222 239 262 285 315 337 343 341 339 338 338 338 339 339 338 340 344 349 352 357 6 7 12 14
233 235 236 235 232 221 220 220 216 222 217 223 222 209 203 204 207 209 216 227 238 247 274 290 319 328 331 333 334 335 338 338 338 337 337 342 347 350 355 4 10 16 26
237 235 232 228 218 211 212 218 213 225 219 219 207 202 203 206 205 209 216 228 235 253 260 283 309 320 325 331 334 337 337 336 335 336 337 342 345 348 354 353 11 13 30
232 225 219 209 206 208 210 206 220 220 223 207 201 200 204 205 207 210 221 229 241 249 259 287 304 316 323 329 335 338 337 335 336 336 337 336 341 342 350 349 353 14 18
222 218 212 204 200 207 207 205 211 220 205 200 200 204 206 206 207 214 225 230 240 249 268 289 305 316 325 331 336 338 336 336 333 333 330 328 333 333 337 342 341 354 12
213 210 209 207 208 206 205 209 216 204 200 200 203 206 207 208 210 219 224 232 238 250 273 296 311 318 325 331 334 335 335 331 325 323 321 324 323 325 325 335 335 334 340
216 208 207 208 210 209 209 212 205 201 201 203 205 206 208 212 216 220 222 232 241 256 278 296 308 315 323 329 331 331 329 328 317 317 316 313 310 314 313 320 325 320 326
222 214 210 211 212 211 208 205 202 201 202 205 208 209 212 217 220 223 228 239 247 263 283 296 306 310 319 325 327 329 330 331 325 319 308 292 298 296 294 297 312 308 310
223 221 215 215 215 214 208 203 202 204 207 208 210 211 216 223 227 225 234 242 251 273 281 289 298 308 316 321 324 327 327 325 319 313 304 292 294 285 278 278 296 301 305
226 221 217 215 213 210 206 205 206 207 208 210 211 214 220 225 231 234 242 252 267 272 277 286 295 305 312 316 321 322 322 321 319 313 303 301 293 280 267 270 281 291 291
230 224 217 212 208 207 208 208 208 211 212 212 214 216 221 225 230 238 254 272 271 271 276 283 291 299 306 313 316 318 318 316 310 304 303 305 290 279 264 267 272 280 283
230 225 219 214 210 210 210 210 211 212 214 215 216 217 220 221 228 252 268 274 272 275 279 285 291 297 303 307 311 314 312 308 303 301 303 304 291 276 260 265 268 270 277
234 227 221 216 213 212 212 214 217 217 215 214 215 216 211 220 238 261 279 270 272 276 282 287 291 295 302 308 309 308 305 302 298 296 295 293 278 273 266 266 269 273 274
237 231 224 220 218 216 215 217 217 217 219 220 216 206 214 231 260 282 264 268 273 279 284 288 292 298 301 301 302 303 303 299 294 288 287 288 280 265 263 264 265 272 272
240 232 226 220 216 215 215 212 210 211 212 209 202 212 231 279 273 258 265 271 275 281 284 288 292 294 298 301 303 306 307 301 295 288 281 277 274 267 264 264 266 267 271
245 237 229 223 219 216 214 215 214 208 205 203 211 236 267 270 256 263 267 269 276 279 284 288 292 295 297 299 302 305 306 307 302 293 283 276 272 270 263 262 265 268 270
247 242 235 227 220 218 217 214 213 212 205 210 241 252 263 249 261 262 265 270 274 278 281 285 288 291 294 297 299 301 301 301 299 297 290 281 274 273 269 264 265 270 271
251 246 238 229 223 219 216 214 210 206 216 240 248 255 248 255 258 263 266 267 269 273 279 282 286 289 291 293 296 298 300 302 302 299 295 289 280 272 269 268 267 268 268
250 245 239 227 217 214 213 209 208 225 239 247 248 242 247 253 260 264 266 267 269 271 273 275 280 285 288 292 295 296 299 300 298 296 294 293 287 280 277 274 269 267 264
246 237 225 217 212 214 213 213 232 240 245 251 247 250 253 256 259 263 263 265 266 269 273 276 280 283 285 287 290 293 298 301 300 299 298 295 290 285 279 276 273 268 263
228 219 213 212 215 215 218 233 240 244 247 249 249 249 254 260 266 265 263 263 265 268 272 276 279 279 280 285 290 295 299 302 303 302 302 299 295 291 287 280 274 268 260
243 234 226 221 220 226 240 252 258 257 248 246 248 249 251 261 265 265 263 262 264 269 273 276 277 279 285 289 293 296 299 301 303 306 305 304 299 294 290 285 276 266 258
246 244 244 242 244 256 263 269 264 254 252 252 251 248 260 263 262 261 262 264 266 267 270 275 278 279 278 282 288 293 298 300 302 303 302 303 301 293 289 285 277 269 263
266 259 256 252 254 259 263 262 258 258 257 255 255 263 262 257 260 263 263 265 267 268 270 274 277 279 282 283 283 284 287 291 293 294 296 298 296 292 288 282 276 271 268
264 262 261 264 268 269 268 266 263 262 264 266 267 265 261 259 259 262 264 265 268 271 271 270 274 277 280 283 284 284 285 285 286 286 288 287 287 288 286 282 278 273 271